Portada
METAR-TAF:

METAR-TAF

Aeropuertos :

Aeropuerto Internacional Roman Tmetuchl

Koror, Babeldaob, Palaos

latitud: 07-22N, longitud: 134-32E, altitud: 54 m

Observación

El informe se hizo hace 51 minutos, a las 15:50 UTC
Viento 4 kt del noreste
Temperatura 25°C
Humedad 94%
Presión 1009 hPa
Visibilidad: 24.1 km
Nubes dispersas a una altura de 1600 ft, Cumulonimbus.
Cielo nuboso a una altura de 29000 ft

METAR: PTRO 111550Z 05004KT 15SM SCT016CB BKN290 25/24 A2980 RMK CB S-SW

Hora: 01:41 (16:41 UTC)

Pronóstico

El informe se hizo hace 5 horas y 13 minutos, a las 11:28 UTC
Pronóstico válido del 11 a las 12 UTC al 12 a las 12 UTC
Viento 10 kt del este-noreste
Visibilidad: 10 km
Nubes dispersas a una altura de 1600 ft
Nubes dispersas a una altura de 4000 ft

TAF: PTRO 111128Z 1112/1212 07010KT P6SM SCT016 SCT040

Observaciones y pronósticos meteorológicos de más de 4000 aeropuertos (mensajes METAR y TAF).

Los puntos amarillos y rojos representan las estaciones disponibles.

Ponga el ratón en el punto deseado para ver el nombre de la estación.

Haga clic para ver las observaciones y los pronósticos meteorológicos.

Para cambiar el mapa : haga clic en los botones verdes con una cruz de color negro para hacer un zoom, en el botón verde con un guión para alejar o en las flechas verdes para mapas adyacentes.


METAR-TAF: